This demonstration page uses our WeatherBlox Daily Observations layout. Learn more.

Left ArrowRight Arrow

Hourly Observations for July 16, 2021

Temp ( °F °C ) Dew Point ( °F °C ) Humidity (%) Winds ( mph kmh ) Pressure ( in mb ) Visibility ( mi km ) Precip ( " mm )
12:15 am 00:15 Clear 72 22 68 20 88 88 N N/A 30.05 1018 10 16 N/A
12:35 am 00:35 Clear 72 22 68 20 88 88 SSW 5 7 30.05 1018 10 16 N/A
12:55 am 00:55 Clear 70 21 68 20 94 94 N N/A 30.06 1018 10 16 N/A
1:15 am 01:15 Clear 70 21 68 20 94 94 N N/A 30.05 1018 10 16 N/A
1:35 am 01:35 Clear 70 21 66 19 88 88 SSW 6 9 30.04 1017 10 16 N/A
1:55 am 01:55 Clear 68 20 66 19 94 94 NW 5 7 30.05 1018 10 16 N/A
2:15 am 02:15 Clear 68 20 66 19 94 94 W 3 6 30.05 1018 10 16 N/A
2:35 am 02:35 Clear 66 19 66 19 100 100 N N/A 30.04 1017 10 16 N/A
2:55 am 02:55 Clear 66 19 64 18 94 94 N N/A 30.04 1017 10 16 N/A
3:15 am 03:15 Clear 68 20 64 18 88 88 S 3 6 30.04 1017 10 16 N/A
3:35 am 03:35 Clear 66 19 64 18 94 94 S 3 6 30.04 1017 10 16 N/A
3:55 am 03:55 Clear 64 18 64 18 100 100 N N/A 30.04 1017 10 16 N/A
4:15 am 04:15 Clear 64 18 64 18 100 100 N N/A 30.04 1017 10 16 N/A
4:35 am 04:35 Clear 64 18 63 17 94 94 N N/A 30.04 1017 10 16 N/A
4:55 am 04:55 Clear 64 18 63 17 94 94 N N/A 30.04 1017 10 16 N/A
5:15 am 05:15 Clear 63 17 63 17 100 100 N N/A 30.05 1017 10 16 N/A
5:35 am 05:35 Clear 63 17 63 17 100 100 N N/A 30.06 1018 10 16 N/A
5:55 am 05:55 Clear 63 17 63 17 100 100 N N/A 30.06 1018 10 16 N/A
6:15 am 06:15 Sunny 63 17 63 17 100 100 N N/A 30.07 1018 10 16 N/A
6:35 am 06:35 Sunny 63 17 61 16 94 94 N N/A 30.07 1018 10 16 N/A
6:55 am 06:55 Sunny 63 17 61 16 94 94 N N/A 30.08 1018 10 16 N/A
7:15 am 07:15 Sunny 64 18 63 17 94 94 N N/A 30.07 1018 10 16 N/A
7:35 am 07:35 Sunny 64 18 63 17 94 94 N N/A 30.08 1019 10 16 N/A
7:55 am 07:55 Sunny 68 20 63 17 83 83 N N/A 30.08 1019 10 16 N/A
8:15 am 08:15 Sunny 70 21 64 18 83 83 W 3 6 30.08 1019 10 16 N/A
8:35 am 08:35 Sunny 72 22 64 18 78 78 N N/A 30.08 1019 10 16 N/A
8:55 am 08:55 Sunny 73 23 64 18 74 74 N N/A 30.08 1019 10 16 N/A
9:15 am 09:15 Sunny 75 24 64 18 69 69 N N/A 30.09 1019 10 16 N/A
9:35 am 09:35 Sunny 77 25 64 18 65 65 W 3 6 30.07 1018 10 16 N/A
9:55 am 09:55 Sunny 79 26 64 18 61 61 N N/A 30.07 1018 10 16 N/A
10:15 am 10:15 Sunny 81 27 64 18 58 58 WSW 6 9 30.07 1018 10 16 N/A
10:35 am 10:35 Sunny 81 27 64 18 58 58 WNW 6 9 30.07 1018 10 16 N/A
10:55 am 10:55 Sunny 81 27 64 18 58 58 WNW 6 9 30.07 1018 10 16 N/A
11:15 am 11:15 Sunny 82 28 64 18 55 55 NNW 7 11 30.08 1019 10 16 N/A
11:35 am 11:35 Sunny 82 28 66 19 58 58 NW 7 11 30.08 1019 10 16 N/A
11:55 am 11:55 Sunny 84 29 66 19 55 55 W 7 11 30.08 1019 10 16 N/A
12:15 pm 12:15 Sunny 84 29 66 19 55 55 W 6 9 30.08 1019 10 16 N/A
12:35 pm 12:35 Sunny 86 30 66 19 52 52 NNW 6 9 30.08 1019 10 16 N/A
12:55 pm 12:55 Sunny 86 30 66 19 52 52 NW 3 6 30.08 1019 10 16 N/A
1:15 pm 13:15 Sunny 86 30 68 20 55 55 N N/A 30.07 1018 10 16 N/A
1:35 pm 13:35 Sunny 88 31 66 19 49 49 NW 5 7 30.07 1018 10 16 N/A
1:55 pm 13:55 Mostly Cloudy 88 31 68 20 52 52 NW 5 7 30.06 1018 10 16 N/A
2:15 pm 14:15 Partly Cloudy 90 32 66 19 46 46 N N/A 30.05 1017 10 16 N/A
2:35 pm 14:35 Partly Cloudy 88 31 66 19 49 49 SW 5 7 30.05 1017 10 16 N/A
2:55 pm 14:55 Mostly Cloudy 90 32 68 20 49 49 W 8 13 30.04 1017 10 16 N/A
3:15 pm 15:15 Partly Cloudy 90 32 66 19 46 46 S 6 9 30.03 1017 10 16 N/A
3:35 pm 15:35 Sunny 91 33 66 19 44 44 W 3 6 30.01 1016 10 16 N/A
3:55 pm 15:55 Partly Cloudy 90 32 64 18 43 43 SW 10 17 30.01 1016 10 16 N/A
4:15 pm 16:15 Partly Cloudy 91 33 66 19 44 44 SW 8 13 29.99 1016 10 16 N/A
4:35 pm 16:35 Partly Cloudy 91 33 66 19 44 44 W 6 9 29.99 1016 10 16 N/A
4:55 pm 16:55 Sunny 91 33 66 19 44 44 WSW 6 9 29.99 1016 10 16 N/A
5:15 pm 17:15 Sunny 91 33 64 18 41 41 SW 8 13 29.99 1016 10 16 N/A
5:35 pm 17:35 Sunny 91 33 64 18 41 41 WSW 5 7 29.99 1016 10 16 N/A
5:55 pm 17:55 Sunny 91 33 64 18 41 41 SW 6 9 29.99 1016 10 16 N/A
6:15 pm 18:15 Sunny 91 33 66 19 44 44 SW 9 15 29.99 1016 10 16 N/A
6:35 pm 18:35 Sunny 90 32 64 18 43 43 WSW 6 9 30.00 1016 10 16 N/A
6:55 pm 18:55 Sunny 90 32 66 19 46 46 SW 9 15 29.99 1015 10 16 N/A
7:15 pm 19:15 Sunny 90 32 68 20 49 49 SW 7 11 29.99 1015 10 16 N/A
7:35 pm 19:35 Sunny 88 31 68 20 52 52 SW 6 9 30.00 1016 10 16 N/A
7:55 pm 19:55 Sunny 88 31 68 20 52 52 SW 3 6 30.00 1016 10 16 N/A
8:15 pm 20:15 Sunny 88 31 68 20 52 52 N N/A 30.01 1016 10 16 N/A
8:35 pm 20:35 Clear 86 30 68 20 55 55 SW 3 6 30.01 1016 10 16 N/A
8:55 pm 20:55 Clear 84 29 68 20 58 58 SW 3 6 30.01 1016 10 16 N/A
9:15 pm 21:15 Clear 82 28 68 20 62 62 SW 5 7 30.02 1017 10 16 N/A
9:35 pm 21:35 Clear 82 28 68 20 62 62 SW 3 6 30.03 1017 10 16 N/A
9:55 pm 21:55 Mostly Cloudy 82 28 68 20 62 62 SSW 3 6 30.03 1017 10 16 N/A
10:15 pm 22:15 Mostly Cloudy 82 28 68 20 62 62 N N/A 30.03 1017 10 16 N/A
10:35 pm 22:35 Clear 82 28 68 20 62 62 SW 3 6 30.03 1017 10 16 N/A
10:55 pm 22:55 Clear 81 27 70 21 70 70 N N/A 30.03 1017 10 16 N/A
11:15 pm 23:15 Clear 79 26 70 21 74 74 N N/A 30.03 1017 10 16 N/A
11:35 pm 23:35 Clear 79 26 70 21 74 74 N N/A 30.03 1017 10 16 N/A
11:55 pm 23:55 Partly Cloudy 77 25 70 21 79 79 WNW 3 6 30.03 1017 10 16 N/A

Powered by AerisWeather